Home > Weather > Richmond > Past weeks

Flag for USA Past Weather in Richmond, Virginia, USA — Yesterday and Last 2 Weeks

Now
79 °F

Broken clouds.


Feels Like: 83 °F
Forecast: 72 / 85 °F
Wind: 20 mph from Southeast

Location: Richmond International Airport

Current Time: Jul 30, 2016 at 6:44:03 PM

Latest Report: Jul 30, 2016 at 5:54 PM


Visibility: 10 mi

Pressure: 29.95 "Hg

Humidity: 84%

Dew Point: 74 °F

Location of RichmondLocation

Past Weather in Richmond — Graph

°F

Richmond Temperature Yesterday

Maximum temperature yesterday: 86 °F (at 3:54 PM)
Minimum temperature yesterday: 74 °F (at 1:54 AM)
Average temperature yesterday: 79 °F

High & Low Weather Summary for the Past Weeks

 TemperatureHumidityPressure
High95 °F (Jul 24, 2:54 PM)100% (Jul 16, 10:54 PM)30.21 "Hg (Jul 16, 10:54 PM)
Low67 °F (Jul 20, 4:54 AM)40% (Jul 21, 11:54 AM)29.78 "Hg (Jul 28, 5:54 PM)
Average81 °F76%30.02 "Hg
* Reported Jul 15 4:54 PM — Jul 30 4:54 PM, Richmond, Weather by CustomWeather, © 2016

Note: Actual official high and low records may vary slightly from our data, if they occured in-between our weather recording intervals... More about our weather records

Advertising

Richmond Weather History for the Previous 24 Hours

Scroll right to see more
 ConditionsComfort  
Time TempWeatherWind HumidityBarometerVisibility
4:54 PM
Sat, Jul 30
78 °FPartly sunny.15 mph84%29.94 "Hg10 mi
3:54 PM78 °FPartly sunny.12 mph84%29.95 "Hg10 mi
2:54 PM76 °FPartly sunny.8 mph94%29.97 "Hg10 mi
1:54 PM75 °FBroken clouds.6 mph90%29.99 "Hg10 mi
1:00 PM73 °FThunderstorms. Fog.18 mph97%30.01 "Hg3 mi
12:54 PM74 °FThunderstorms. Fog.9 mph97%30.02 "Hg2 mi
11:54 AM83 °FPartly sunny.No wind72%30.00 "Hg10 mi
10:54 AM82 °FMostly cloudy.6 mph77%30.00 "Hg10 mi
9:54 AM81 °FPartly sunny.9 mph79%29.99 "Hg10 mi
8:54 AM78 °FPartly sunny.6 mph87%30.00 "Hg8 mi
7:54 AM77 °FPartly sunny.5 mph90%29.99 "Hg9 mi
6:54 AM74 °FPassing clouds.3 mph94%29.98 "Hg8 mi
5:54 AM73 °FPassing clouds.5 mph94%29.95 "Hg8 mi
4:54 AM73 °FPassing clouds.No wind97%29.94 "Hg8 mi
3:54 AM74 °FPassing clouds.No wind94%29.93 "Hg9 mi
2:54 AM74 °FPassing clouds.No wind91%29.94 "Hg10 mi
1:54 AM74 °FPassing clouds.No wind91%29.96 "Hg10 mi
12:54 AM76 °FClear.No wind88%29.96 "Hg10 mi
11:54 PM
Fri, Jul 29
75 °FClear.5 mph88%29.96 "Hg10 mi
10:54 PM77 °FPassing clouds.No wind85%29.96 "Hg10 mi
9:54 PM78 °FPassing clouds.No wind82%29.95 "Hg10 mi
8:54 PM78 °FPassing clouds.No wind84%29.93 "Hg10 mi
7:54 PM82 °FScattered clouds.3 mph70%29.92 "Hg10 mi
6:54 PM85 °FScattered clouds.6 mph59%29.91 "Hg10 mi
Weather by CustomWeather, © 2016

See weather overviewHow to use our weather pages